AE5HO Weather Reports


Display with metric or nautical units.
time (UTC)temp
F
wind
direction
speed
MPH
gust
MPH
rain 1hr
in
rain 24hr
in
rain mn
in
humidity
%
barometer
mb
20260905201520 98 185 0.0 2.0 0.00 0.00 0.00 46 1012.8
20260905201019 98 184 0.0 2.0 0.00 0.00 0.00 45 1012.6
20260905200515 98 180 0.0 2.0 0.00 0.00 0.00 45 1012.7
20260905200015 98 0 0.0 2.0 0.00 0.00 0.00 46 1012.7
20260905195514 97 300 0.0 2.0 0.00 0.00 0.00 46 1013.1
20260905195010 97 180 0.0 1.0 0.00 0.00 0.00 46 1012.8
20260905194510 98 262 0.0 3.0 0.00 0.00 0.00 47 1013.1
20260905194010 97 195 0.0 2.0 0.00 0.00 0.00 47 1013.0
20260905193510 97 123 0.0 2.0 0.00 0.00 0.00 46 1013.1
20260905193005 98 270 0.0 3.0 0.00 0.00 0.00 46 1013.4
20260905192500 98 176 4.0 4.0 0.00 0.00 0.00 46 1013.3
20260905191956 97 173 0.0 2.0 0.00 0.00 0.00 48 1013.5
20260905191455 97 261 0.0 1.0 0.00 0.00 0.00 47 1013.7
20260905190955 96 174 0.0 2.0 0.00 0.00 0.00 48 1013.4
20260905190453 95 5 0.0 2.0 0.00 0.00 0.00 50 1013.9
20260905185951 95 270 0.0 3.0 0.00 0.00 0.00 49 1013.8
20260905185447 96 270 0.0 2.0 0.00 0.00 0.00 49 1014.0
20260905184945 96 282 2.0 3.0 0.00 0.00 0.00 48 1014.1
20260905184440 96 180 0.0 2.0 0.00 0.00 0.00 49 1014.3
20260905183939 96 180 0.0 2.0 0.00 0.00 0.00 49 1014.1
20260905183439 96 190 3.0 3.0 0.00 0.00 0.00 49 1014.3
20260905182934 96 204 0.0 2.0 0.00 0.00 0.00 51 1014.2
20260905182433 96 77 1.0 3.0 0.00 0.00 0.00 49 1014.3
20260905181929 96 176 0.0 3.0 0.00 0.00 0.00 53 1014.6
20260905181429 95 203 0.0 2.0 0.00 0.00 0.00 55 1014.6
20260905180928 94 203 0.0 1.0 0.00 0.00 0.00 54 1014.9
20260905180423 95 180 2.0 3.0 0.00 0.00 0.00 50 1014.8
20260905175918 94 261 0.0 5.0 0.00 0.00 0.00 50 1014.8
20260905175418 95 237 0.0 3.0 0.00 0.00 0.00 50 1014.8
20260905174913 95 255 1.0 3.0 0.00 0.00 0.00 50 1014.8
20260905174409 95 90 0.0 0.0 0.00 0.00 0.00 51 1015.0
20260905173904 95 247 3.0 3.0 0.00 0.00 0.00 50 1015.1
20260905173401 95 270 0.0 2.0 0.00 0.00 0.00 48 1015.1
20260905172855 94 180 1.0 3.0 0.00 0.00 0.00 51 1014.9
20260905172353 94 200 0.0 1.0 0.00 0.00 0.00 54 1015.2
20260905171849 93 270 2.0 4.0 0.00 0.00 0.00 53 1014.9
20260905171346 95 345 0.0 2.0 0.00 0.00 0.00 52 1015.2
20260905170842 95 180 0.0 2.0 0.00 0.00 0.00 52 1015.1
20260905170338 95 264 0.0 2.0 0.00 0.00 0.00 54 1015.3
20260905165837 95 185 0.0 2.0 0.00 0.00 0.00 53 1015.2
20260905165332 93 209 1.0 3.0 0.00 0.00 0.00 54 1015.5
20260905164832 93 184 2.0 3.0 0.00 0.00 0.00 56 1015.6
20260905164327 93 251 2.0 3.0 0.00 0.00 0.00 56 1015.4
20260905163823 93 14 1.0 4.0 0.00 0.00 0.00 55 1015.4
20260905163319 93 195 1.0 3.0 0.00 0.00 0.00 56 1015.3
20260905162815 94 257 0.0 1.0 0.00 0.00 0.00 55 1015.6
20260905162314 92 303 2.0 2.0 0.00 0.00 0.00 55 1015.5
20260905161809 92 270 1.0 2.0 0.00 0.00 0.00 56 1015.4
20260905161308 92 300 0.0 2.0 0.00 0.00 0.00 55 1015.4
20260905160807 93 173 0.0 0.0 0.00 0.00 0.00 56 1015.1
20260905160301 93 261 0.0 2.0 0.00 0.00 0.00 58 1015.6
20260905155756 92 185 0.0 2.0 0.00 0.00 0.00 59 1015.3
20260905155255 92 105 0.0 2.0 0.00 0.00 0.00 59 1015.4
20260905154754 92 195 0.0 3.0 0.00 0.00 0.00 59 1015.4
20260905154251 91 270 0.0 3.0 0.00 0.00 0.00 61 1015.4
20260905153746 89 209 0.0 3.0 0.00 0.00 0.00 62 1015.5
20260905153242 89 254 0.0 3.0 0.00 0.00 0.00 64 1015.7
20260905152737 89 261 0.0 2.0 0.00 0.00 0.00 62 1015.6
20260905152236 89 257 0.0 2.0 0.00 0.00 0.00 64 1015.4
20260905151736 89 261 0.0 2.0 0.00 0.00 0.00 64 1015.3
20260905151233 89 258 2.0 3.0 0.00 0.00 0.00 64 1015.3
20260905150732 88 276 2.0 3.0 0.00 0.00 0.00 64 1015.4
20260905150231 87 270 0.0 4.0 0.00 0.00 0.00 65 1015.4
20260905145729 88 251 2.0 2.0 0.00 0.00 0.00 66 1015.2
20260905145224 87 233 0.0 2.0 0.00 0.00 0.00 67 1015.4
20260905144723 87 106 0.0 2.0 0.00 0.00 0.00 68 1015.2
20260905144218 86 276 2.0 3.0 0.00 0.00 0.00 68 1015.2
20260905143717 86 276 2.0 3.0 0.00 0.00 0.00 68 1015.6
20260905143217 85 120 0.0 1.0 0.00 0.00 0.00 71 1015.3
20260905142715 85 257 2.0 2.0 0.00 0.00 0.00 72 1015.3
20260905142210 84 246 0.0 3.0 0.00 0.00 0.00 73 1015.2
20260905141706 84 180 0.0 1.0 0.00 0.00 0.00 72 1015.4
20260905141202 84 246 0.0 0.0 0.00 0.00 0.00 74 1015.3
20260905140657 84 279 0.0 1.0 0.00 0.00 0.00 75 1015.3
20260905140157 84 240 0.0 1.0 0.00 0.00 0.00 76 1015.4
20260905135652 83 255 0.0 1.0 0.00 0.00 0.00 77 1015.1
20260905135148 83 188 0.0 1.0 0.00 0.00 0.00 78 1015.3
20260905134647 82 180 0.0 1.0 0.00 0.00 0.00 78 1015.3
20260905134146 82 246 0.0 1.0 0.00 0.00 0.00 78 1015.2
20260905133642 82 286 0.0 2.0 0.00 0.00 0.00 78 1015.1
20260905133142 82 180 0.0 0.0 0.00 0.00 0.00 79 1015.2
20260905132641 81 294 0.0 3.0 0.00 0.00 0.00 79 1015.2
20260905132136 81 186 0.0 1.0 0.00 0.00 0.00 80 1015.1
20260905131631 81 187 0.0 0.0 0.00 0.00 0.00 81 1015.0
20260905131127 80 246 0.0 0.0 0.00 0.00 0.00 83 1015.0
20260905130627 80 180 0.0 0.0 0.00 0.00 0.00 84 1014.9
20260905130127 79 180 0.0 0.0 0.00 0.00 0.00 85 1014.7
20260905125626 79 180 0.0 0.0 0.00 0.00 0.00 85 1014.8
20260905125122 78 195 0.0 0.0 0.00 0.00 0.00 85 1014.9
20260905124619 78 195 0.0 0.0 0.00 0.00 0.00 85 1014.6
20260905124114 78 180 0.0 0.0 0.00 0.00 0.00 86 1014.9
20260905123609 78 180 0.0 0.0 0.00 0.00 0.00 86 1014.5
20260905123107 77 180 0.0 0.0 0.00 0.00 0.00 86 1014.4
20260905122607 77 195 0.0 0.0 0.00 0.00 0.00 86 1014.5
20260905122106 77 195 0.0 0.0 0.00 0.00 0.00 85 1014.4
20260905121601 77 195 0.0 0.0 0.00 0.00 0.00 85 1014.3
20260905121057 77 195 0.0 0.0 0.00 0.00 0.00 85 1014.2
20260905120555 77 195 0.0 0.0 0.00 0.00 0.00 85 1014.3
20260905120051 78 195 0.0 0.0 0.00 0.00 0.00 85 1014.3
20260905115550 78 195 0.0 0.0 0.00 0.00 0.00 85 1014.4
20260905115045 78 195 0.0 0.0 0.00 0.00 0.00 85 1014.3
20260905114544 78 195 0.0 0.0 0.00 0.00 0.00 84 1014.3
20260905114043 78 195 0.0 1.0 0.00 0.00 0.00 84 1014.2
20260905113538 78 180 0.0 0.0 0.00 0.00 0.00 84 1014.1
20260905113033 78 180 0.0 0.0 0.00 0.00 0.00 84 1014.1
20260905112529 78 180 0.0 0.0 0.00 0.00 0.00 84 1014.1
20260905112025 78 180 0.0 0.0 0.00 0.00 0.00 84 1014.0
20260905111525 79 180 0.0 1.0 0.00 0.00 0.00 83 1014.2
20260905111024 78 180 0.0 0.0 0.00 0.00 0.00 83 1014.0
20260905110523 79 180 0.0 0.0 0.00 0.00 0.00 82 1014.3
20260905110019 79 200 0.0 0.0 0.00 0.00 0.00 82 1014.4
20260905105513 79 200 0.0 0.0 0.00 0.00 0.00 82 1014.2
20260905105012 79 165 0.0 1.0 0.00 0.00 0.00 82 1014.4
20260905104509 79 180 0.0 1.0 0.00 0.00 0.00 82 1014.5
20260905104008 79 180 0.0 0.0 0.00 0.00 0.00 81 1014.5
20260905103503 79 180 0.0 0.0 0.00 0.00 0.00 81 1014.4
20260905102959 79 180 0.0 0.0 0.00 0.00 0.00 81 1014.4
20260905102455 80 180 0.0 0.0 0.00 0.00 0.00 80 1014.4
20260905101950 80 180 0.0 1.0 0.00 0.00 0.00 80 1014.5
20260905101449 80 188 0.0 0.0 0.00 0.00 0.00 79 1014.4
20260905100948 80 188 0.0 0.0 0.00 0.00 0.00 79 1014.6
20260905100444 80 188 0.0 0.0 0.00 0.00 0.00 78 1014.4
20260905095943 81 203 0.0 1.0 0.00 0.00 0.00 78 1014.5
20260905095443 81 195 0.0 1.0 0.00 0.00 0.00 78 1014.3
20260905094939 81 188 0.0 1.0 0.00 0.00 0.00 78 1014.3
20260905094434 81 275 2.0 2.0 0.00 0.00 0.00 78 1014.0
20260905093933 80 254 0.0 1.0 0.00 0.00 0.00 79 1014.1
20260905093428 80 195 0.0 1.0 0.00 0.00 0.00 80 1014.1
20260905092924 80 180 0.0 0.0 0.00 0.00 0.00 80 1014.0
20260905092419 80 188 0.0 0.0 0.00 0.00 0.00 79 1013.9
20260905091914 81 246 0.0 0.0 0.00 0.00 0.00 79 1014.0
20260905091409 81 246 0.0 0.0 0.00 0.00 0.00 78 1013.7
20260905090908 81 246 0.0 0.0 0.00 0.00 0.00 77 1014.0
20260905090404 81 246 0.0 0.0 0.00 0.00 0.00 77 1014.0
20260905085903 82 194 0.0 1.0 0.00 0.00 0.00 77 1013.8
20260905085403 82 188 0.0 1.0 0.00 0.00 0.00 76 1014.0
20260905084859 82 180 0.0 0.0 0.00 0.00 0.00 76 1013.9
20260905084357 82 246 0.0 0.0 0.00 0.00 0.00 75 1014.1
20260905083853 82 180 0.0 1.0 0.00 0.00 0.00 75 1014.1
20260905083348 82 173 0.0 1.0 0.00 0.00 0.00 75 1014.0
20260905082844 82 188 0.0 1.0 0.00 0.00 0.00 75 1013.8
20260905082340 83 262 0.0 0.0 0.00 0.00 0.00 74 1014.0
20260905081835 83 261 0.0 0.0 0.00 0.00 0.00 74 1014.0
20260905081330 83 261 0.0 0.0 0.00 0.00 0.00 73 1013.8
20260905080829 83 8 0.0 1.0 0.00 0.00 0.00 73 1014.0
20260905080324 84 255 0.0 3.0 0.00 0.00 0.00 72 1013.9
20260905075822 84 235 2.0 3.0 0.00 0.00 0.00 71 1013.8
20260905075322 84 246 0.0 2.0 0.00 0.00 0.00 72 1014.0
20260905074821 84 266 3.0 3.0 0.00 0.00 0.00 72 1013.6
20260905074317 84 281 2.0 2.0 0.00 0.00 0.00 71 1013.9
20260905073812 84 234 1.0 2.0 0.00 0.00 0.00 71 1013.7
20260905073308 84 262 0.0 1.0 0.00 0.00 0.00 71 1013.9
20260905072808 84 270 0.0 2.0 0.00 0.00 0.00 71 1013.8
20260905072305 84 246 0.0 0.0 0.00 0.00 0.00 71 1013.9
20260905071759 84 255 1.0 4.0 0.00 0.00 0.00 69 1014.0
20260905071255 84 255 0.0 2.0 0.00 0.00 0.00 70 1014.1
20260905070749 84 203 0.0 2.0 0.00 0.00 0.00 70 1014.1
20260905070247 84 264 2.0 3.0 0.00 0.00 0.00 69 1014.1
20260905065745 84 279 0.0 1.0 0.00 0.00 0.00 71 1014.1
20260905065244 85 180 0.0 2.0 0.00 0.00 0.00 70 1013.8
20260905064740 85 261 0.0 2.0 0.00 0.00 0.00 69 1014.0
20260905064235 84 185 2.0 2.0 0.00 0.00 0.00 71 1014.1
20260905063733 85 237 0.0 2.0 0.00 0.00 0.00 69 1014.1
20260905063230 85 83 0.0 1.0 0.00 0.00 0.00 70 1013.9
20260905062726 85 200 0.0 2.0 0.00 0.00 0.00 70 1014.1
20260905062226 84 196 0.0 0.0 0.00 0.00 0.00 71 1014.2
20260905061725 85 180 0.0 1.0 0.00 0.00 0.00 72 1014.2
20260905061221 85 173 0.0 1.0 0.00 0.00 0.00 70 1014.0
20260905060720 85 186 0.0 2.0 0.00 0.00 0.00 69 1014.2
20260905060217 86 166 0.0 2.0 0.00 0.00 0.00 67 1014.2
20260905055715 86 252 0.0 3.0 0.00 0.00 0.00 66 1014.0
20260905055211 86 180 0.0 0.0 0.00 0.00 0.00 66 1013.9
20260905054706 86 90 0.0 0.0 0.00 0.00 0.00 66 1014.0
20260905054202 86 253 0.0 2.0 0.00 0.00 0.00 65 1014.0
20260905053701 86 90 0.0 0.0 0.00 0.00 0.00 66 1013.7
20260905053157 87 254 0.0 1.0 0.00 0.00 0.00 65 1014.0
20260905052656 87 180 0.0 2.0 0.00 0.00 0.00 65 1013.9
20260905052151 87 303 0.0 2.0 0.00 0.00 0.00 65 1013.8
20260905051646 87 180 0.0 1.0 0.00 0.00 0.00 65 1013.8
20260905051143 87 270 0.0 2.0 0.00 0.00 0.00 64 1013.8
20260905050639 87 82 0.0 1.0 0.00 0.00 0.00 64 1013.8
20260905050136 87 279 0.0 2.0 0.00 0.00 0.00 64 1013.8
20260905045635 87 196 0.0 2.0 0.00 0.00 0.00 63 1013.9
20260905045131 88 180 0.0 2.0 0.00 0.00 0.00 63 1014.0
20260905044630 88 8 0.0 1.0 0.00 0.00 0.00 63 1013.6
20260905044125 88 70 0.0 2.0 0.00 0.00 0.00 62 1013.8
20260905043624 88 175 2.0 2.0 0.00 0.00 0.00 62 1013.7
20260905043120 88 192 0.0 2.0 0.00 0.00 0.00 62 1013.6
20260905042618 88 173 1.0 2.0 0.00 0.00 0.00 61 1013.5
20260905042114 89 291 0.0 2.0 0.00 0.00 0.00 61 1013.8
20260905041609 89 279 0.0 2.0 0.00 0.00 0.00 60 1013.6
20260905041105 89 24 0.0 3.0 0.00 0.00 0.00 60 1013.8
20260905040605 89 303 0.0 5.0 0.00 0.00 0.00 60 1013.7
20260905040103 89 324 0.0 3.0 0.00 0.00 0.00 60 1013.8
20260905035558 89 283 1.0 2.0 0.00 0.00 0.00 59 1013.8
20260905035055 90 192 1.0 4.0 0.00 0.00 0.00 58 1013.8
20260905034551 90 264 0.0 3.0 0.00 0.00 0.00 57 1014.0
20260905034051 90 60 2.0 2.0 0.00 0.00 0.00 56 1013.9
20260905033551 90 300 0.0 2.0 0.00 0.00 0.00 56 1014.0
20260905033047 90 84 0.0 2.0 0.00 0.00 0.00 55 1013.7
20260905032546 90 353 0.0 1.0 0.00 0.00 0.00 55 1013.7
20260905032041 90 189 2.0 3.0 0.00 0.00 0.00 54 1013.4
20260905031537 90 194 0.0 2.0 0.00 0.00 0.00 54 1013.4
20260905031037 90 90 0.0 2.0 0.00 0.00 0.00 53 1013.4
20260905030532 90 180 0.0 2.0 0.00 0.00 0.00 54 1013.4
20260905030032 90 198 0.0 2.0 0.00 0.00 0.00 53 1013.7
20260905025527 90 209 0.0 2.0 0.00 0.00 0.00 53 1013.5
20260905025024 91 192 0.0 3.0 0.00 0.00 0.00 53 1013.4
20260905024518 91 195 0.0 3.0 0.00 0.00 0.00 52 1013.4
20260905024014 91 263 0.0 1.0 0.00 0.00 0.00 53 1013.5
20260905023509 91 176 2.0 3.0 0.00 0.00 0.00 52 1013.1
20260905023009 91 194 0.0 3.0 0.00 0.00 0.00 52 1013.0
20260905022503 91 174 0.0 3.0 0.00 0.00 0.00 52 1012.7
20260905021959 91 180 0.0 2.0 0.00 0.00 0.00 53 1012.7
20260905021458 91 180 0.0 2.0 0.00 0.00 0.00 52 1012.6
20260905020954 91 203 0.0 3.0 0.00 0.00 0.00 52 1012.6
20260905020453 91 180 0.0 2.0 0.00 0.00 0.00 52 1012.7
20260905015953 91 198 0.0 2.0 0.00 0.00 0.00 52 1012.5
20260905015452 92 180 0.0 3.0 0.00 0.00 0.00 52 1012.4
20260905014951 92 185 2.0 2.0 0.00 0.00 0.00 51 1012.6
20260905014447 92 175 2.0 3.0 0.00 0.00 0.00 51 1012.5
20260905013942 92 177 0.0 2.0 0.00 0.00 0.00 51 1012.3
20260905013438 92 169 0.0 3.0 0.00 0.00 0.00 51 1012.3
20260905012933 92 161 0.0 3.0 0.00 0.00 0.00 52 1012.2
20260905012428 92 60 0.0 3.0 0.00 0.00 0.00 52 1012.2
20260905011925 92 180 2.0 3.0 0.00 0.00 0.00 52 1012.2
20260905011420 92 212 0.0 4.0 0.00 0.00 0.00 52 1012.3
20260905010916 92 185 0.0 2.0 0.00 0.00 0.00 52 1012.0
20260905010411 93 241 0.0 2.0 0.00 0.00 0.00 52 1012.0
20260905005907 93 168 2.0 2.0 0.00 0.00 0.00 52 1011.8
20260905005403 93 209 1.0 3.0 0.00 0.00 0.00 52 1011.8
20260905004857 93 180 0.0 2.0 0.00 0.00 0.00 52 1011.7
20260905004357 94 180 2.0 2.0 0.00 0.00 0.00 51 1011.9
20260905003853 94 194 0.0 4.0 0.00 0.00 0.00 51 1011.7
20260905003349 94 210 2.0 3.0 0.00 0.00 0.00 51 1011.5
20260905002844 94 66 0.0 2.0 0.00 0.00 0.00 51 1011.5
20260905002344 95 180 0.0 3.0 0.00 0.00 0.00 51 1011.6
20260905001839 95 200 0.0 2.0 0.00 0.00 0.00 50 1011.5
20260905001339 95 172 1.0 2.0 0.00 0.00 0.00 50 1011.4
20260905000834 96 180 0.0 3.0 0.00 0.00 0.00 49 1011.3
20260905000329 96 187 0.0 2.0 0.00 0.00 0.00 49 1011.4
20260904235825 96 180 2.0 3.0 0.00 0.00 0.00 49 1011.4
20260904235320 96 180 1.0 2.0 0.00 0.00 0.00 49 1011.4
20260904234815 96 200 1.0 2.0 0.00 0.00 0.00 49 1011.6
20260904234315 96 180 0.0 0.0 0.00 0.00 0.00 49 1011.4
20260904233811 96 81 0.0 2.0 0.00 0.00 0.00 48 1011.5
20260904233306 96 102 0.0 2.0 0.00 0.00 0.00 47 1011.2
20260904232803 97 194 0.0 2.0 0.00 0.00 0.00 47 1011.6
20260904232259 96 180 2.0 3.0 0.00 0.00 0.00 47 1011.5
20260904231754 96 180 0.0 3.0 0.00 0.00 0.00 47 1011.5
20260904231249 96 174 1.0 2.0 0.00 0.00 0.00 47 1011.5
20260904230745 96 180 0.0 2.0 0.00 0.00 0.00 47 1011.4
20260904230238 96 188 0.0 1.0 0.00 0.00 0.00 47 1011.4
20260904225738 97 74 0.0 2.0 0.00 0.00 0.00 46 1011.5
20260904225232 97 180 0.0 0.0 0.00 0.00 0.00 47 1011.5
20260904224731 96 192 0.0 4.0 0.00 0.00 0.00 46 1011.5
20260904224227 97 188 1.0 2.0 0.00 0.00 0.00 46 1011.4
20260904223726 97 166 1.0 3.0 0.00 0.00 0.00 46 1011.7
20260904223221 97 203 0.0 2.0 0.00 0.00 0.00 46 1011.5
20260904222717 97 170 0.0 3.0 0.00 0.00 0.00 46 1011.7
20260904222212 98 173 0.0 3.0 0.00 0.00 0.00 44 1011.5
20260904221711 98 206 0.0 3.0 0.00 0.00 0.00 44 1011.5
20260904221207 99 180 0.0 2.0 0.00 0.00 0.00 43 1011.5
20260904220701 98 32 0.0 3.0 0.00 0.00 0.00 43 1011.8
20260904220157 97 200 0.0 2.0 0.00 0.00 0.00 45 1011.7
20260904215656 97 190 2.0 2.0 0.00 0.00 0.00 45 1011.7
20260904215152 98 26 0.0 2.0 0.00 0.00 0.00 45 1011.8
20260904214647 98 180 0.0 3.0 0.00 0.00 0.00 44 1011.9
20260904214143 98 32 2.0 2.0 0.00 0.00 0.00 45 1012.1
20260904213640 98 176 4.0 4.0 0.00 0.00 0.00 44 1011.8
20260904213137 98 180 1.0 3.0 0.00 0.00 0.00 45 1011.9
20260904212637 98 185 0.0 3.0 0.00 0.00 0.00 45 1011.8
20260904212132 99 180 0.0 3.0 0.00 0.00 0.00 46 1012.0
20260904211632 99 180 0.0 3.0 0.00 0.00 0.00 46 1012.0
20260904211128 98 265 0.0 3.0 0.00 0.00 0.00 46 1012.2
20260904210627 99 180 0.0 4.0 0.00 0.00 0.00 46 1012.3
20260904210123 99 203 0.0 4.0 0.00 0.00 0.00 45 1012.2
20260904205619 99 265 2.0 3.0 0.00 0.00 0.00 46 1012.3
20260904205115 99 210 0.0 3.0 0.00 0.00 0.00 46 1012.3
20260904204610 98 312 0.0 3.0 0.00 0.00 0.00 46 1012.5
20260904204106 98 180 0.0 4.0 0.00 0.00 0.00 46 1012.5
20260904203602 99 199 3.0 3.0 0.00 0.00 0.00 46 1012.7
20260904203058 99 270 0.0 2.0 0.00 0.00 0.00 45 1012.5
20260904202554 99 270 0.0 3.0 0.00 0.00 0.00 47 1012.4
20260904202051 98 270 1.0 3.0 0.00 0.00 0.00 47 1012.7